ELECTRON R/B (44372 NORAD) Tracking and Keplerian Element Data

This shows tracking and keplerian element data for the satellite.

Feedback or suggestion? Click here.




ElementValue
Catalog44372
NameELECTRON R/B
Epoch Orbit300
Epoch Day199.37210624
Epoch Year2019
RAAN178.6351
Inclination45.0115
Eccentricity0.0119537
Argument of Perigee356.727
Mean Anonmoly3.2827
Mean Motion15.64565559
Decay Rate0.00034842
L11 44372U 19037H 19199.37210624 .00034842 92639-5 25773-3 0 9996
L22 44372 45.0115 178.6351 0119537 356.7270 3.2827 15.64565559 3001

Live tracking and technical data element details for ELECTRON R/B (NORAD 44372). ELECTRON R/B can be tracked NOW for your location showing map with azimuth and elevation plus other details from your city location.

Track the satellite on the map from your city or location and see movement details for azimuth, elevation, latitude, longitude, range, height, and movement on the map or in text.







IsCatalogInMostPopularTable: catalog: 44372, numindb: 6
Update: records affected: 1



GetName: 44372 ELECTRON R/B

Hit Count: updated at: Fri, 19 Jul 2019 07:53:14 GMT